Weather History for Buckhannon, WV

Change the Weather History Date:

Thursday, March 27, 2014

  Actual Average (KEKN) Record (KEKN)
Temperature  
Mean Temperature 39 °F 44 °F  
Max Temperature 57 °F 56 °F 84 °F (1921)
Min Temperature 21 °F 31 °F 11 °F (2001)
Degree Days  
Heating Degree Days 26 22  
Month to date heating degree days 698  
Since 1 July heating degree days 5019  
Cooling Degree Days 0 0  
Month to date cooling degree days 0  
Year to date cooling degree days 0  
Moisture  
Dew Point 14 °F    
Average Humidity 39    
Maximum Humidity 68    
Minimum Humidity 14    
Precipitation  
Precipitation 0.00 in 0.14 in 1.29 in (1932)
Month to date precipitation 3.43  
Year to date precipitation 9.76  
Snow  
Snow 0.00 in - - ()
Month to date snowfall  
Since 1 September snowfall  
Snow Depth -    
Sea Level Pressure  
Sea Level Pressure 30.16 in    
Wind  
Wind Speed 5 mph (South)    
Max Wind Speed 22 mph    
Max Gust Speed 26 mph    
Visibility 10 miles    
Events      
T = Trace of Precipitation, MM = Missing Value Source: NWS Daily Summary

Daily Weather History Graph

Daily Weather History Graph

Search for Another Location

Airport:

Trip Planner

Search our weather history database for the weather conditions in past years. The results will help you decide how hot, cold, wet, or windy it might be!

Date:

Astronomy

Mar. 27, 2014 Rise Set
Actual Time 7:13 AM EDT 7:39 PM EDT
Civil Twilight 6:46 AM EDT 8:06 PM EDT
Nautical Twilight 6:15 AM EDT 8:38 PM EDT
Astronomical Twilight 5:43 AM EDT 9:10 PM EDT
Moon 5:02 AM EDT (3/27) 4:27 PM EDT (3/27)
Length of Visible Light 13h 19m
Length of Day
12h 26m
Waning Crescent, 13% of the Moon is Illuminated
Mar 27
Waning Crescent
Mar 30
New
Apr 7
First Quarter
Apr 15
Full
Apr 22
Last Quarter

Hourly Weather History & Observations

Time (EDT) Temp. Windchill Dew Point Humidity Pressure Visibility Wind Dir Wind Speed Gust Speed Precip Events Conditions
12:15 AM 23.0 °F 18.4 °F 10.4 °F 59% 30.29 in 10.0 mi South 3.5 mph - N/A   Clear
12:35 AM 23.0 °F - 10.4 °F 59% 30.29 in 10.0 mi Calm Calm - N/A   Clear
12:55 AM 23.0 °F 18.4 °F 10.4 °F 59% 30.29 in 10.0 mi SE 3.5 mph - N/A   Clear
1:15 AM 23.0 °F - 12.2 °F 63% 30.29 in 10.0 mi Calm Calm - N/A   Clear
1:35 AM 23.0 °F - 12.2 °F 63% 30.28 in 10.0 mi Calm Calm - N/A   Clear
1:55 AM 23.0 °F - 12.2 °F 63% 30.29 in 10.0 mi Calm Calm - N/A   Clear
2:15 AM 21.2 °F - 12.2 °F 68% 30.29 in 10.0 mi Calm Calm - N/A   Clear
2:35 AM 21.2 °F - 12.2 °F 68% 30.30 in 10.0 mi Calm Calm - N/A   Clear
2:55 AM 21.2 °F - 12.2 °F 68% 30.31 in 10.0 mi Calm Calm - N/A   Clear
3:15 AM 21.2 °F - 12.2 °F 68% 30.31 in 10.0 mi Calm Calm - N/A   Clear
3:35 AM 21.2 °F - 12.2 °F 68% 30.30 in 10.0 mi Calm Calm - N/A   Clear
3:55 AM 21.2 °F - 12.2 °F 68% 30.30 in 10.0 mi Calm Calm - N/A   Clear
4:15 AM 21.2 °F 16.4 °F 12.2 °F 68% 30.27 in 10.0 mi ESE 3.5 mph - N/A   Clear
4:35 AM 23.0 °F 17.0 °F 12.2 °F 63% 30.27 in 10.0 mi SSE 4.6 mph - N/A   Clear
4:55 AM 23.0 °F 18.4 °F 12.2 °F 63% 30.25 in 10.0 mi ESE 3.5 mph - N/A   Clear
5:15 AM 24.8 °F - 10.4 °F 54% 30.25 in 10.0 mi Calm Calm - N/A   Clear
5:35 AM 23.0 °F 15.8 °F 10.4 °F 59% 30.25 in 10.0 mi SE 5.8 mph - N/A   Clear
5:55 AM 23.0 °F 15.8 °F 12.2 °F 63% 30.24 in 10.0 mi ESE 5.8 mph - N/A   Clear
6:15 AM 23.0 °F - 12.2 °F 63% 30.23 in 10.0 mi Calm Calm - N/A   Clear
6:35 AM 24.8 °F 20.5 °F 12.2 °F 59% 30.22 in 10.0 mi East 3.5 mph - N/A   Clear
6:55 AM 26.6 °F - 12.2 °F 55% 30.23 in 10.0 mi Calm Calm - N/A   Clear
7:15 AM 26.6 °F - 12.2 °F 55% 30.23 in 10.0 mi Calm Calm - N/A   Clear
7:35 AM 24.8 °F - 12.2 °F 59% 30.24 in 10.0 mi Calm Calm - N/A   Clear
7:55 AM 26.6 °F 21.2 °F 14.0 °F 59% 30.25 in 10.0 mi SSW 4.6 mph - N/A   Clear
8:15 AM 26.6 °F 21.2 °F 14.0 °F 59% 30.23 in 10.0 mi SSE 4.6 mph - N/A   Clear
8:35 AM 28.4 °F - 15.8 °F 59% 30.24 in 10.0 mi Calm Calm - N/A   Clear
8:55 AM 30.2 °F - 17.6 °F 60% 30.25 in 10.0 mi Calm Calm - N/A   Clear
9:15 AM 32.0 °F - 21.2 °F 64% 30.24 in 10.0 mi Calm Calm - N/A   Clear
9:35 AM 33.8 °F - 17.6 °F 52% 30.24 in 10.0 mi Calm Calm - N/A   Clear
9:55 AM 33.8 °F - 17.6 °F 52% 30.24 in 10.0 mi Calm Calm - N/A   Clear
10:15 AM 35.6 °F - 15.8 °F 44% 30.24 in 10.0 mi Calm Calm - N/A   Clear
10:35 AM 37.4 °F - 8.6 °F 30% 30.24 in 10.0 mi Calm Calm - N/A   Clear
10:55 AM 39.2 °F - 10.4 °F 31% 30.23 in 10.0 mi Calm Calm - N/A   Clear
11:15 AM 41.0 °F 36.4 °F 12.2 °F 31% 30.23 in 10.0 mi South 6.9 mph - N/A   Clear
11:35 AM 42.8 °F 38.6 °F 12.2 °F 29% 30.22 in 10.0 mi South 6.9 mph - N/A   Clear
11:55 AM 46.4 °F 41.5 °F 12.2 °F 25% 30.21 in 10.0 mi South 10.4 mph - N/A   Clear
12:15 PM 48.2 °F - 12.2 °F 24% 30.19 in 10.0 mi SSW 9.2 mph - N/A   Clear
12:35 PM 51.8 °F - 6.8 °F 16% 30.18 in 10.0 mi SW 11.5 mph 20.7 mph N/A   Clear
12:55 PM 51.8 °F - 6.8 °F 16% 30.18 in 10.0 mi SW 11.5 mph 18.4 mph N/A   Clear
1:15 PM 53.6 °F - 5.0 °F 14% 30.16 in 10.0 mi South 12.7 mph 18.4 mph N/A   Clear
1:35 PM 51.8 °F - 3.2 °F 14% 30.15 in 10.0 mi South 13.8 mph 24.2 mph N/A   Clear
1:55 PM 53.6 °F - 5.0 °F 14% 30.13 in 10.0 mi SSW 18.4 mph 25.3 mph N/A   Partly Cloudy
2:15 PM 55.4 °F - 8.6 °F 15% 30.12 in 10.0 mi South 11.5 mph 21.9 mph N/A   Clear
2:35 PM 55.4 °F - 8.6 °F 15% 30.10 in 10.0 mi SSW 12.7 mph 20.7 mph N/A   Clear
2:55 PM 55.4 °F - 8.6 °F 15% 30.09 in 10.0 mi South 15.0 mph - N/A   Clear
3:15 PM 57.2 °F - 10.4 °F 16% 30.09 in 10.0 mi South 15.0 mph 21.9 mph N/A   Partly Cloudy
3:35 PM 57.2 °F - 10.4 °F 16% 30.08 in 10.0 mi South 13.8 mph - N/A   Partly Cloudy
3:55 PM 57.2 °F - 10.4 °F 16% 30.09 in 10.0 mi SSW 9.2 mph - N/A   Clear
4:15 PM 55.4 °F - 10.4 °F 17% 30.09 in 10.0 mi South 11.5 mph - N/A   Scattered Clouds
4:35 PM 55.4 °F - 8.6 °F 15% 30.09 in 10.0 mi SSW 15.0 mph 24.2 mph N/A   Partly Cloudy
4:55 PM 55.4 °F - 10.4 °F 17% 30.08 in 10.0 mi SSW 17.3 mph 23.0 mph N/A   Partly Cloudy
5:15 PM 55.4 °F - 12.2 °F 18% 30.07 in 10.0 mi South 16.1 mph 21.9 mph N/A   Partly Cloudy
5:35 PM 57.2 °F - 15.8 °F 20% 30.07 in 10.0 mi SSW 19.6 mph 25.3 mph N/A   Partly Cloudy
5:55 PM 57.2 °F - 15.8 °F 20% 30.07 in 10.0 mi South 15.0 mph 18.4 mph N/A   Partly Cloudy
6:15 PM 57.2 °F - 17.6 °F 21% 30.06 in 10.0 mi South 21.9 mph 26.5 mph N/A   Clear
6:35 PM 55.4 °F - 17.6 °F 23% 30.05 in 10.0 mi South 18.4 mph 21.9 mph N/A   Clear
6:55 PM 55.4 °F - 17.6 °F 23% 30.06 in 10.0 mi SSW 10.4 mph - N/A   Clear
7:15 PM 53.6 °F - 17.6 °F 24% 30.05 in 10.0 mi South 12.7 mph - N/A   Partly Cloudy
7:35 PM 53.6 °F - 17.6 °F 24% 30.05 in 10.0 mi South 11.5 mph - N/A   Partly Cloudy
7:55 PM 53.6 °F - 17.6 °F 24% 30.04 in 10.0 mi SSE 8.1 mph - N/A   Scattered Clouds
8:15 PM 51.8 °F - 19.4 °F 28% 30.03 in 10.0 mi South 10.4 mph - N/A   Partly Cloudy
8:35 PM 51.8 °F - 19.4 °F 28% 30.03 in 10.0 mi South 6.9 mph - N/A   Partly Cloudy
8:55 PM 51.8 °F - 19.4 °F 28% 30.03 in 10.0 mi South 9.2 mph - N/A   Partly Cloudy
9:15 PM 50.0 °F - 19.4 °F 30% 30.03 in 10.0 mi South 8.1 mph - N/A   Clear
9:35 PM 51.8 °F - 19.4 °F 28% 30.03 in 10.0 mi South 10.4 mph - N/A   Clear
9:55 PM 51.8 °F - 19.4 °F 28% 30.02 in 10.0 mi South 10.4 mph - N/A   Clear
10:15 PM 51.8 °F - 19.4 °F 28% 30.01 in 10.0 mi South 10.4 mph - N/A   Clear
10:35 PM 50.0 °F - 21.2 °F 32% 30.01 in 10.0 mi South 8.1 mph - N/A   Clear
10:55 PM 51.8 °F - 21.2 °F 30% 30.00 in 10.0 mi South 9.2 mph - N/A   Clear
11:15 PM 50.0 °F - 21.2 °F 32% 30.00 in 10.0 mi South 9.2 mph - N/A   Clear
11:35 PM 51.8 °F - 21.2 °F 30% 29.98 in 10.0 mi South 12.7 mph - N/A   Clear
11:55 PM 51.8 °F - 21.2 °F 30% 29.97 in 10.0 mi South 13.8 mph 18.4 mph N/A   Clear